Regional Weather Roundup
Issued by NWS

Home | Current Version | Previous Version | Text Only | Print | Product List | Glossary On
Versions: 1 2 3 4 5 6 7 8 9 10 11 12 13 14 15 16 17 18 19 20 21 22 23 24 25 26 27 28 29 30 31 32 33 34 35 36 37 38 39 40 41 42 43 44 45 46 47 48 49 50
310
ASUS46 KLOX 121013
RWRCA

SOUTHERN CALIFORNIA WEATHER ROUNDUP
NATIONAL WEATHER SERVICE OXNARD CALIFORNIA
200 AM PST FRI FEB 12 2016

NOTE: "FAIR" INDICATES FEW OR NO CLOUDS BELOW 12,000 FEET WITH NO
SIGNIFICANT WEATHER AND/OR OBSTRUCTIONS TO VISIBILITY.

  -  STATIONS PRECEEDED BY AN ASTERISK (*) ARE NOT NWS OR FAA
     STATIONS AND ARE NOT SUBJECT TO NWS AND FAA QUALITY CONTROL.

CAZ041-042-087-121100-
LA AND ORANGE COUNTY COASTAL AREAS


CITY           SKY/WX    TMP DP  RH WIND       PRES   REMARKS
L.A. DOWNTOWN  CLEAR     58  41  53 CALM      30.10S
L.A. AIRPORT   PTCLDY    60  41  49 CALM      30.10F
LONG BEACH     CLEAR     55  41  59 CALM      30.10S

CITY           SKY/WX    TMP DP  RH WIND       PRES   REMARKS
FULLERTON      CLEAR     56  38  50 E3        30.09F
HAWTHORNE      CLEAR     57  40  52 CALM      30.10F
*LOS ALAMITOS  FAIR      53  43  69 CALM      30.09F
*REDONDO BEACH   N/A     51  38  61 CALM      30.10S
SANTA ANA      CLEAR     56  38  50 CALM      30.10F
STA MONICA APT CLEAR     58  41  53 NE5       30.10F
*UCLA            N/A     68  28  22 N8        30.08S

$$

CAZ547-548-048-121100-
LA COUNTY VALLEYS AND INLAND EMPIRE


CITY           SKY/WX    TMP DP  RH WIND       PRES   REMARKS
BURBANK        CLEAR     56  36  47 CALM      30.11F
VAN NUYS       CLEAR     56  39  53 CALM      30.12F

CITY           SKY/WX    TMP DP  RH WIND       PRES   REMARKS
CORONA AIRPORT SUNNY     45  37  73 CALM      30.13F
*CHATSWORTH      N/A     54  37  53 CALM      30.13S
CHINO          CLEAR     53  38  56 CALM      30.14S
*CLAREMONT       N/A     57  30  36 NE3         N/A
MARCH AFB      CLEAR     46  31  56 CALM      30.15S
ONTARIO        CLEAR     58  37  45 NE3       30.12F
*PASADENA        N/A     61  39  44 CALM        N/A
RIVERSIDE      CLEAR     57  32  38 NE7       30.13F
SAN BERNARDINO NOT AVBL
*SAN GABRIEL     N/A     57  40  52 NW2       30.17F
*SAUGUS          N/A     60  24  25 NE3         N/A
*WHITEMAN AP   NOT AVBL
*WHITTIER HILL   N/A     69  31  24 E8          N/A
*WOODLAND HILL   N/A     50  32  50 SW1         N/A

$$

CAZ054-055-121100-
LA AND SAN BERNARDINO COUNTY MOUNTAINS


CITY           SKY/WX    TMP DP  RH WIND       PRES   REMARKS
*BIG BEAR AIRP SUNNY     25  19  80 CALM      30.40F
SANDBERG       CLEAR     60  19  20 NE7       30.28F

$$

CAZ028-029-059-060-099-121100-
ANTELOPE VALLEY AND SURROUNDING AREAS


CITY           SKY/WX    TMP DP  RH WIND       PRES   REMARKS
LANCASTER      CLEAR     35  27  72 CALM      30.23F
PALMDALE       CLEAR     41  28  60 S7        30.23S
*POPPY PARK      N/A     47  25  42 N2          N/A

CITY           SKY/WX    TMP DP  RH WIND       PRES   REMARKS
29 PALMS       CLEAR     48  21  34 NW6       30.27S
BARSTOW/DAGGET CLEAR     46  23  40 W9        30.21S
BISHOP         PTCLDY    33  24  69 NW8       30.30S WCI  26
CHINA LAKE     CLEAR     39  27  62 CALM      30.22S
EDWARDS AFB    CLEAR     38  26  61 SW3       30.21S
MOJAVE         CLEAR     45  25  45 NW6       30.23S
NEEDLES        CLEAR     53  25  33 W6        30.16S
VICTORVILLE    CLEAR     43  25  49 CALM      30.23S

$$

CAZ039-040-121100-
VENTURA AND SANTA BARBARA COUNTY COAST


CITY           SKY/WX    TMP DP  RH WIND       PRES   REMARKS
CAMARILLO      CLEAR     51  39  63 CALM      30.10R
NWS OXNARD       N/A     55  37  51 CALM      30.09R
OXNARD AIRPORT CLEAR     60  36  40 NE3       30.10S
*POINT MUGU    CLEAR     49  41  74 E5        30.11S
SBA APT/GOLETA PTCLDY    49  46  90 CALM      30.09F
*SANTA BARBARA   N/A     54  47  77 CALM      30.16F
*VENTURA         N/A     62  34  35 NE3       30.08S

$$

CAZ044-045-121100-
VENTURA COUNTY VALLEYS


CITY           SKY/WX    TMP DP  RH WIND       PRES   REMARKS
*SIMI VALLEY     N/A     58  32  38 CALM      30.05S
*WESTLAKE VILL   N/A     43  36  74 CALM      30.12S
*OJAI            N/A     43  38  82 CALM      30.07S
*FILLMORE        N/A     49  38  67 CALM      30.01S

$$

CAZ053-121100-
VENTURA COUNTY MOUNTAINS


CITY           SKY/WX    TMP DP  RH WIND       PRES   REMARKS
*LOCKWOOD VLY    N/A     28  16  59 MISG        N/A
*ROSE VALLEY     N/A     28  28 100 MISG        N/A

$$

CAZ034-035-036-121100-
CENTRAL COAST AND SANTA YNEZ VALLEY


CITY           SKY/WX    TMP DP  RH WIND       PRES   REMARKS
SAN LUIS OBISP FOG       48  47  96 CALM      30.15S VSB 1/4
SANTA MARIA    PTCLDY    46  45  96 CALM      30.15F

CITY           SKY/WX    TMP DP  RH WIND       PRES   REMARKS
*CAL POLY SLO    N/A     46  46 100 CALM        N/A
*SANTA YNEZ    FAIR      45  41  87 CALM      30.15S

$$

CAZ037-038-051-121100-
SAN LUIS OBISPO COUNTY INTERIOR AND CUYAMA VALLEY


CITY           SKY/WX    TMP DP  RH WIND       PRES   REMARKS
*CUYAMA          N/A     46  32  56 E5        30.16S
PASO ROBLES    PTCLDY    44  42  93 S3        30.19R

$$

CAZ032-033-061-121100-
SOUTHERN DESERTS


CITY           SKY/WX    TMP DP  RH WIND       PRES   REMARKS
BLYTHE         CLEAR     52  24  33 CALM      30.12S
IMPERIAL       CLEAR     54  27  35 W6        30.09S
PALM SPRINGS   CLEAR     61  27  27 NW7       30.13F
THERMAL        CLEAR     46  35  65 CALM      30.08F

$$

ELSEWHERE ACROSS THE WESTERN UNITED STATES AND MEXICO


CITY           SKY/WX    TMP DP  RH WIND       PRES   REMARKS
DENVER, CO     CLOUDY    35  24  64 SE10      30.25F WCI  27
GRAND CANYON,  MOCLDY    24  18  77 NE5       30.40S WCI  18
HONOLULU, HI   PTCLDY    75  64  69 E13       30.04F
KAHULUI, MAUI  CLEAR     73  63  68 NE15G22   30.03F
LAKE TAHOE, CA PTCLDY    28  23  81 CALM      30.34S
LAS VEGAS, NV  CLEAR     50  22  33 SW5       30.20R
MAMMOTH LAKES, FAIR      28  19  69 N6        30.39S WCI  22
MEXICO CITY, M CLEAR     45  34  65 NE5       30.41S
PHOENIX, AZ    CLEAR     59  35  40 CALM      30.12S
PORTLAND, OR   CLOUDY    52  43  71 SE14      30.15R
RENO, NV       MOCLDY    38  32  79 CALM      30.31R
SALT LAKE CITY CLOUDY    29  27  92 S7        30.42F FOG     WCI  22
SAN DIEGO, CA  CLEAR     59  37  44 CALM      30.10F
SAN FRANCISCO, PTCLDY    52  50  93 CALM      30.20S
SAN JOSE, CA   MOCLDY    53  49  86 E6        30.20S
SEATTLE, WA    LGT RAIN  52  48  87 SE7       30.10S
TIJUANA, MEX   CLEAR     61  27  27 E6        30.12F

$$

STATION/POSITION TIME  TEMP    WIND        PRES    VSBY  WAVE
                       AIR SEA DIR/SP/G                  HT/PER
                 (UTC) (F)     (DEG/KT/KT) (MB)    (MI)  (FT/S)
POINT ARGUELLO B NOT AVBL
WEST SANTA BARBA 0950   54 58  320/ 16/ 19 1018.6F         8/19
POINT CONCEPTION NOT AVBL
EAST SANTA BARBA 0900   58 59  210/  2/  4 1019.6F
SANTA MONICA BAY 0950   60 60  320/  6/  8 1019.3F         4/12



USA.gov is the U.S. government's official web portal to all federal, state and local government web resources and services.